Probability
0 1 2 3 4 3 1 1 1 1 1 0 1 2 2 1 0 0 0 0 0 0 0 0 0 0 0 0 0 0 0 0 0 0 0 0 0 0 0 0 0 0 1
1 1 3 5 5 4 2 2 2 3 3 1 1 2 2 1 0 0 0 0 0 0 0 0 0 0 0 0 0 0 0 0 0 0 0 0 0 0 0 0 0 1 2
2 2 4 6 6 4 3 3 4 6 5 3 2 2 1 0 0 1 1 0 0 0 0 0 0 0 0 0 0 0 0 0 0 0 0 0 0 0 1 1 1 2 3
3 3 5 7 6 4 3 4 6 7 6 4 3 1 0 0 1 2 2 1 0 0 0 0 0 0 0 0 0 0 0 0 0 0 0 0 0 0 2 2 2 2 2
3 4 6 8 6 4 4 4 5 6 5 4 3 1 1 1 2 3 3 2 1 0 0 0 0 0 0 0 0 0 0 0 0 0 0 0 0 2 4 5 4 3 3
5 5 8 10 9 7 6 5 5 6 6 6 4 3 3 3 3 3 2 3 2 1 0 0 0 0 0 0 0 0 0 0 0 0 0 0 0 3 6 7 6 5 5
9 9 11 13 12 11 9 7 7 8 8 8 7 6 5 4 4 3 3 3 2 1 0 0 0 0 0 0 0 0 0 0 0 0 0 0 0 2 5 8 7 6 6
13 13 13 15 14 13 11 9 8 9 9 9 9 9 8 7 4 3 3 2 1 0 0 0 0 0 0 0 0 0 0 1 1 0 0 0 0 0 2 5 6 6 6
13 14 13 12 12 12 12 11 11 10 10 10 10 9 9 7 4 3 2 2 1 0 0 0 0 0 0 1 1 1 1 2 1 0 0 0 1 1 1 3 3 4 5
10 12 11 9 9 10 12 12 13 11 10 10 10 8 7 5 4 3 2 3 2 1 1 1 1 1 1 2 2 2 1 1 1 0 0 2 4 4 4 5 4 4 4
9 9 9 8 7 8 10 10 11 11 10 10 9 7 5 4 3 2 2 2 2 2 2 2 2 2 1 2 2 2 1 0 0 0 1 3 6 7 8 8 8 7 6
11 8 6 6 6 6 7 7 7 8 9 8 7 6 5 4 3 1 1 1 1 2 3 3 3 2 1 1 1 1 0 0 0 0 1 4 6 8 9 9 9 9 8
14 10 8 7 5 4 5 5 5 6 7 6 6 5 4 4 3 1 0 0 1 2 3 3 2 2 1 0 0 0 0 0 0 0 2 5 6 8 10 8 6 6 6
18 16 13 10 7 5 6 6 6 6 6 5 4 4 4 4 4 3 1 1 1 2 2 1 1 1 1 0 0 0 0 0 0 1 3 6 7 8 11 9 5 4 5
22 20 18 14 10 9 8 8 8 8 6 5 4 4 6 6 5 4 3 2 3 3 2 1 0 0 0 0 0 0 0 1 0 1 2 5 6 7 9 9 6 5 6
24 24 22 18 14 12 11 10 10 9 6 5 5 5 6 5 5 4 4 3 3 2 1 0 0 0 0 0 0 0 0 0 0 0 1 3 5 6 7 8 7 6 4
28 30 28 24 20 17 15 12 11 8 6 5 4 4 5 5 5 5 4 3 2 1 0 0 0 0 0 0 0 0 0 0 0 0 0 1 3 5 6 6 7 5 3
34 34 33 29 25 22 19 15 11 7 5 4 4 4 5 5 5 4 4 3 1 0 1 1 1 0 0 0 0 0 0 0 0 0 0 1 2 3 4 5 5 5 4
36 36 34 31 28 23 19 15 11 8 6 5 5 6 6 6 5 4 4 3 1 0 1 1 1 0 0 0 0 0 0 0 0 0 0 1 1 3 3 3 3 3 4
36 35 35 32 27 20 15 13 11 10 8 7 6 6 6 7 7 6 6 5 2 0 0 0 0 0 0 0 0 0 0 0 0 0 0 1 1 2 3 2 2 2 3
35 34 34 31 24 16 12 11 10 10 8 6 5 5 6 8 9 9 8 6 2 0 0 0 0 0 0 0 0 0 0 0 0 0 0 0 1 2 2 1 1 1 1
33 31 30 27 20 14 11 9 9 8 7 5 4 5 6 8 9 9 8 5 1 0 0 0 0 0 0 0 0 0 0 0 0 0 0 0 0 1 1 0 0 0 0
30 28 25 20 14 11 9 8 7 7 5 4 3 4 4 5 6 6 6 4 1 0 0 0 0 0 0 0 0 0 0 0 0 0 0 0 0 0 0 0 0 0 0
25 24 20 14 9 8 7 6 5 5 4 3 3 3 2 2 2 3 3 3 1 0 0 0 0 0 0 0 0 0 0 0 0 0 0 0 0 0 0 0 0 0 0
22 21 18 12 7 6 6 4 3 3 3 3 2 1 1 1 0 1 1 2 1 0 0 0 0 0 0 0 0 0 0 0 0 0 0 0 0 0 0 0 0 0 0
21 20 17 12 8 6 6 4 3 3 3 3 1 0 0 0 0 0 0 1 1 0 0 0 0 0 0 0 0 0 0 0 0 0 0 0 0 0 0 0 0 0 0
Wind_Speed
6 7 14 14 14 14 14 14 14 14 14 13 13 13 13 13 13 12 12 11 10 10 9 9 8 8 7 7 7 7 7 7 7 8 8 8 8 8 9 11 11 8 12
10 9 14 15 15 15 14 14 14 13 13 13 12 12 12 12 11 11 10 10 9 8 8 7 7 6 6 5 5 5 5 5 4 5 6 6 7 7 8 10 10 7 11
12 9 13 16 15 15 14 14 14 13 13 12 12 11 11 10 10 9 9 8 7 7 6 6 5 5 4 4 3 3 3 3 2 2 3 2 3 6 7 9 10 11 11
12 8 11 16 16 15 15 14 13 13 12 12 11 11 10 9 9 8 8 7 6 6 5 5 4 4 3 2 2 2 2 2 1 1 1 2 3 6 7 9 10 11 10
10 8 12 17 16 15 15 14 13 13 12 11 11 10 9 8 7 7 7 6 5 5 4 3 3 2 1 1 2 2 3 3 3 2 1 2 3 7 9 10 11 11 11
10 8 11 16 16 15 15 14 13 13 12 11 10 9 8 7 6 6 5 5 4 3 2 1 1 1 1 2 3 3 4 4 3 1 1 2 3 8 10 11 11 11 11
10 7 9 15 15 15 14 14 13 12 11 10 9 8 7 6 6 5 4 3 3 2 1 1 1 1 3 4 4 5 6 6 2 1 1 2 5 10 11 11 11 11 11
12 8 9 14 15 14 14 13 12 11 10 9 8 7 6 6 5 4 4 3 2 1 1 1 2 3 4 5 6 6 7 6 3 2 1 2 7 10 11 11 11 12 12
10 9 7 7 10 12 12 12 11 10 9 8 8 7 6 5 4 4 3 3 3 2 2 3 4 4 5 6 7 7 7 7 2 1 2 2 7 10 11 11 12 12 13
8 7 6 6 5 5 7 11 11 10 9 8 7 7 5 4 4 3 3 3 3 3 4 4 5 5 6 6 7 7 7 6 1 2 2 3 8 10 11 11 12 12 13
8 6 6 6 5 5 5 7 8 9 8 7 5 5 4 1 1 1 3 3 4 4 4 5 6 6 6 6 7 7 6 1 1 1 2 5 7 9 9 10 11 12 13
9 7 6 6 6 5 5 4 3 3 3 3 2 2 1 1 1 1 2 3 4 4 4 5 6 5 4 3 4 5 2 2 1 2 3 6 7 8 9 10 11 11 13
9 8 7 7 6 5 3 4 2 2 2 2 2 2 1 1 0 1 0 2 2 3 2 4 4 2 2 2 2 2 2 1 1 1 2 5 6 7 9 10 11 11 12
8 7 7 7 6 5 4 4 3 2 2 2 2 2 2 1 0 0 0 1 1 1 2 2 2 2 2 3 2 2 1 1 1 1 2 4 5 6 8 8 9 10 10
8 7 7 7 6 5 4 3 4 3 3 2 2 2 2 1 0 0 1 1 1 1 1 2 2 3 3 3 3 2 1 1 1 2 1 3 4 6 7 8 9 9 9
8 8 7 6 6 5 4 3 3 3 3 3 2 2 2 1 1 0 0 1 1 2 2 1 2 2 2 2 3 2 2 1 1 2 2 2 4 6 7 8 8 8 8
8 7 7 6 5 5 4 4 3 3 3 3 2 2 2 1 1 1 0 0 1 1 2 1 2 1 2 2 3 3 1 1 1 2 2 1 2 4 6 6 7 8 9
7 6 6 6 5 5 4 3 3 3 3 2 2 1 1 1 2 1 0 0 1 1 1 1 1 1 2 2 3 2 2 1 1 1 1 1 1 2 3 5 6 7 8
7 6 6 6 5 4 4 3 3 3 2 2 2 1 1 1 1 1 0 1 1 1 1 1 1 1 1 2 3 2 2 1 1 1 1 1 2 2 1 3 3 4 6
6 6 7 6 5 4 3 3 3 3 2 1 1 1 1 0 1 1 0 1 1 1 1 1 1 1 1 2 2 2 2 1 1 0 1 1 1 1 1 0 0 2 3
6 6 6 6 4 4 3 2 2 1 1 1 0 0 0 0 0 1 1 1 1 1 1 1 1 2 2 1 1 3 3 2 1 1 1 0 1 1 0 0 0 0 1
6 5 5 5 4 3 2 2 2 2 1 1 1 1 1 1 1 1 1 0 1 1 2 2 1 1 1 1 1 1 3 4 3 2 1 1 1 1 1 1 1 0 0
7 5 4 4 4 3 3 2 2 2 2 1 1 1 1 1 1 1 0 0 0 1 0 1 1 0 1 1 0 2 1 2 3 2 2 1 1 1 1 1 1 0 0
7 6 5 4 3 3 3 3 3 2 1 1 1 1 1 1 1 1 1 1 0 0 0 1 0 0 0 1 1 1 2 2 1 2 2 2 2 1 1 1 1 1 0
7 6 5 4 3 3 3 3 3 2 1 0 0 0 1 1 1 1 1 1 1 1 1 1 1 1 1 1 1 1 1 1 1 2 2 2 2 2 2 2 1 1 1
6 6 5 5 3 3 3 3 3 3 3 2 0 0 1 1 1 1 1 0 1 1 1 1 1 1 1 1 1 1 1 1 1 1 2 2 2 2 2 1 1 1 1
Wind_Direction
146 150 139 133 129 124 121 118 114 110 106 102 98 96 95 95 94 94 94 95 95 96 96 93 92 92 90 90 92 93 94 98 105 113 119 123 127 131 136 138 133 131 132
145 148 140 135 131 127 124 122 120 117 113 109 105 102 99 98 96 95 95 95 94 95 96 94 93 90 87 85 88 93 96 99 105 116 124 129 132 131 138 143 139 141 140
138 141 139 135 132 130 127 125 123 121 118 115 111 108 105 103 101 100 99 97 96 95 94 94 93 89 81 74 72 77 81 83 93 116 127 123 144 140 138 145 144 146 145
136 137 138 137 134 132 130 129 128 126 123 120 117 115 112 110 107 106 105 103 99 96 93 91 88 85 75 57 42 37 32 19 354 345 155 184 186 156 149 150 154 154 153
129 130 139 138 137 136 135 134 133 132 130 127 125 122 119 117 115 112 109 107 105 100 95 91 83 72 53 24 360 345 338 333 324 319 250 209 192 178 171 165 165 164 162
126 128 140 139 139 139 139 139 138 137 135 133 131 128 127 126 124 121 119 117 116 113 110 105 81 15 330 320 317 315 316 317 324 300 238 204 189 188 180 173 171 171 171
129 131 139 139 140 142 142 143 143 142 141 139 137 135 136 135 134 134 136 133 138 146 158 212 276 300 301 303 303 305 308 310 308 225 214 209 203 194 184 178 175 177 177
135 135 139 141 141 143 145 146 146 145 145 143 141 140 140 140 143 149 153 159 176 206 240 267 277 286 289 292 295 298 300 303 308 305 251 223 216 205 194 183 182 184 185
135 135 135 142 143 144 146 147 146 144 144 144 143 145 149 154 159 164 172 193 213 231 255 269 276 283 288 289 291 293 293 295 296 267 260 239 225 215 204 193 192 193 193
131 134 135 135 135 137 144 148 149 147 146 145 147 154 158 167 181 193 204 221 238 253 267 277 283 287 293 294 293 293 291 292 258 251 240 224 222 213 206 199 200 204 203
136 140 142 143 140 138 143 152 150 147 146 146 147 153 157 161 200 230 251 250 259 270 277 284 286 289 296 296 297 299 298 269 237 231 231 221 216 208 200 197 202 207 208
149 153 152 148 148 149 156 144 143 146 142 139 135 145 137 131 241 232 279 272 281 292 295 296 295 297 300 294 295 299 284 251 227 223 227 225 218 210 203 200 203 209 211
157 158 159 156 157 162 154 148 151 144 143 146 146 149 138 128 299 278 302 303 300 302 308 312 311 303 298 288 288 281 265 241 209 233 236 229 224 216 214 213 211 213 213
155 161 161 160 159 162 154 156 157 157 158 164 165 151 136 128 345 314 264 275 289 298 303 313 307 307 301 296 289 279 268 233 198 203 233 231 222 220 221 220 222 222 221
151 156 162 159 159 161 155 161 157 161 162 163 147 146 138 141 174 279 294 294 290 288 287 298 309 311 309 308 301 291 268 234 210 190 227 239 242 241 237 234 234 230 227
157 162 163 159 160 154 154 155 153 154 152 137 130 134 139 152 149 127 308 300 298 296 287 279 296 305 304 309 308 301 267 225 219 214 211 234 242 249 250 248 243 238 232
158 156 152 151 145 141 143 149 142 141 138 137 138 132 129 129 130 132 118 342 303 302 310 323 329 343 330 323 312 309 302 268 233 230 211 222 249 254 257 259 252 249 246
146 143 144 137 124 121 124 128 129 130 132 140 134 118 108 99 116 110 97 341 309 313 341 331 341 336 321 317 308 306 313 292 267 229 203 216 233 260 266 259 250 248 249
144 139 129 120 119 117 113 106 109 110 114 127 118 104 76 63 92 96 79 313 318 0 351 323 341 309 308 315 304 302 316 305 289 245 210 221 229 231 256 270 262 254 255
131 127 126 122 122 120 108 94 83 76 76 88 103 126 123 66 55 84 89 348 7 15 349 331 314 325 292 291 309 322 313 302 292 272 250 255 258 238 230 254 313 294 285
127 127 129 130 133 124 115 115 111 110 96 63 59 91 137 282 354 70 34 359 21 26 336 337 325 331 321 339 10 335 324 311 320 309 324 344 359 333 242 205 235 277 294
138 136 138 136 132 127 133 139 140 135 130 105 22 4 334 343 345 72 76 21 11 17 5 355 4 332 313 7 91 25 333 329 334 337 352 7 0 2 338 306 243 228 326
143 144 142 136 131 131 131 111 95 78 58 38 7 340 326 349 14 23 358 105 28 102 332 321 343 355 294 300 156 143 173 265 309 321 333 336 343 353 319 286 251 210 162
150 144 139 139 139 142 136 132 136 141 152 208 216 248 305 348 359 339 339 31 34 43 307 289 353 260 198 276 289 224 201 196 207 300 314 313 326 324 303 305 299 258 223
149 146 148 143 146 145 144 147 144 138 153 187 263 332 327 324 310 310 334 16 343 302 274 285 303 285 230 229 236 255 279 250 193 199 280 305 324 307 291 279 269 260 244
146 145 145 145 156 156 152 148 152 154 154 147 183 253 286 290 299 309 314 348 292 278 270 277 273 270 250 244 239 223 209 223 230 203 241 277 289 291 291 275 249 245 245